Location: Lachepaillet
(43.4918°N, 1.4874°W)
Time: 23:50:08
(UTC+00:00)

ISS - Pass Details

Date: 15 May 2026
Orbit: 413 x 422 km, 51.6° (Epoch: 9 June)

Event Time Altitude Azimuth Distance (km) Brightness Sun altitude
Rises 22:58:06 0° 304° (NW) 2,353 0.8 -25.7°
Reaches altitude 10° 23:00:17 10° 313° (NW) 1,490 -0.2 -25.9°
Enters shadow 23:02:15 27° 337° (NNW) 826 -1.7 -26.0°
